Simultaneous Nadir Overpasses (SNOs) Predictions

Prediction of SNOs between METOP-B and TERRA Satellite Orbit:

Table of predicted SNOs for the next 14.0 days since TLE Epoch: 8/8/2020
Index Date (METOP-B) Time (METOP-B) Lat,Lon (METOP-B) SZA (METOP-B ) Date (TERRA) Time (TERRA) Lat,Lon (TERRA) SZA (TERRA ) Distance(km) Time Diff (sec)
1 08/08/2020 14:47:57 -81.32,-174.55 111.83 08/08/2020 14:48:58 -81.32,-174.59 111.81 0.80 61
2 08/08/2020 15:38:36 81.33, -6.79 68.24 08/08/2020 15:38:23 81.33, -6.78 68.23 0.14 13
3 08/11/2020 10:22:17 -81.32,-108.20 111.01 08/11/2020 10:23:12 -81.32,-108.14 110.98 1.07 55
4 08/11/2020 11:12:57 81.33, 59.54 69.06 08/11/2020 11:12:38 81.33, 59.64 69.06 1.60 19
5 08/14/2020 05:56:38 -81.32, -41.86 110.15 08/14/2020 05:57:27 -81.32, -41.73 110.11 2.26 49
6 08/14/2020 06:47:18 81.33, 125.86 69.91 08/14/2020 06:46:53 81.32, 126.02 69.92 2.62 25
7 08/17/2020 01:30:58 -81.33, 24.86 109.21 08/17/2020 01:31:41 -81.33, 25.02 109.17 2.89 43
8 08/17/2020 02:21:38 81.33,-167.44 70.85 08/17/2020 02:21:07 81.34,-167.26 70.86 3.08 31
9 08/19/2020 21:05:18 -81.32, 91.17 108.30 08/19/2020 21:05:55 -81.33, 91.34 108.26 2.89 37
